Вернуться в каталог

AC1-001

АктивенНаукаSSO
NORAD 66744·PAYLOAD·🇬🇧 United Kingdom

Запущен Nov 28, 2025 с Vandenberg Space Force Base

Loading…

Ближайшие Пролёты (ближайшие 24 часа)

TLE

СвежийSource: Space-Track

Эпоха: Sep 14, 2026, 11:04 UTC

1 66744U 25276CG  26257.46119565  .00001658  00000-0  83241-4 0  9990
2 66744  97.4129 329.0953 0004268  65.7847 294.3833 15.18669353 43959

Отслеживайте AC1-001 в реальном времени с AllMySat

Download on the App Store